www.pogodaiklimat.ru

Погода и климат >> Архив погоды >> Россия >> Мурманская область >> Порт Кандалакша


ПОГОДА в Порту Кандалакша

  • Прогноз погоды в Порту Кандалакша
  • Монитор погоды в Порту Кандалакша

АРХИВ ПОГОДЫ в Порту Кандалакша

Время (UTC), дата Ветер
(напр.,м/с)
 
Видим.   Явления Облачность Т
(С)
Тd
(С)
f
(%)
Тe
(С)
Тes
(С)
Комфортность P
(гПа)
Po
(гПа)
Тmin
(С)
Tmax
(С)
R
(мм)
R24
(мм)
S
(см)
09 15.09 С 3 н/о н/о +9.2 +3.7 68 +7 +7 1000.3 998.1
12 15.09 С 3 н/о н/о +9.0 +2.1 62 +7 +7 998.3 996.1
15 15.09 С 4 н/о н/о +8.2 +2.6 68 +5 +5 996.1 993.9
18 15.09 С 2 н/о н/о +6.2 +2.7 78 +4 +4 994.1 991.9 +9.7
21 15.09 С 2 н/о н/о +5.5 +3.6 88 +3 +3 992.5 990.3
00 16.09 С 2 н/о н/о +5.7 +4.3 91 +3 +3 991.3 989.1
03 16.09 С 3 н/о н/о +6.0 +4.5 90 +3 +3 990.7 988.5 +5.4
06 16.09 С 1 н/о н/о +7.8 +5.9 88 +7 +7 990.4 988.2 +5.4
09 16.09 С 5 н/о н/о +9.6 +5.5 76 +6 +6 991.3 989.1
12 16.09 С 4 н/о н/о +9.9 +4.9 71 +7 +7 992.5 990.3
15 16.09 С 3 н/о н/о +9.5 +5.3 75 +7 +7 993.4 991.3
18 16.09 С 2 н/о н/о +7.9 +5.4 84 +6 +6 994.5 992.3 +10.6
21 16.09 СВ 1 н/о н/о +6.1 +4.1 87 +5 +5 995.4 993.2
00 17.09 С 2 н/о н/о +5.8 +3.9 88 +3 +3 996.2 994.0
03 17.09 С 1 н/о н/о +5.4 +3.4 87 +4 +4 997.1 994.9 +5.3
06 17.09 СВ 4 н/о н/о +6.1 +2.4 77 +2 +2 998.1 995.9 +5.1
09 17.09 С 3 н/о н/о +7.4 +0.4 61 +5 +5 999.5 997.3
12 17.09 С 2 н/о н/о +8.8 -0.7 51 +8 +8 1000.4 998.2
15 17.09 СВ 2 н/о н/о +6.9 +1.4 68 +5 +5 1001.5 999.3
18 17.09 СВ 2 н/о н/о +2.0 -0.7 82 -1 -1 1002.7 1000.5 +9.6
21 17.09 С 2 н/о н/о +1.7 -0.0 88 -2 -2 1003.6 1001.3
00 18.09 С 2 н/о н/о +1.2 -0.6 88 -2 -2 1004.4 1002.1
03 18.09 С 4 н/о н/о +2.1 -0.1 85 -3 -3 1004.6 1002.3 +0.3
06 18.09 С 4 н/о н/о +3.1 0.0 80 -2 -2 1005.2 1002.9 +0.3
09 18.09 СЗ 6-8
{10}
н/о н/о +5.4 -0.1 68 +1 +1 1006.2 1004.0
12 18.09 СЗ 6 н/о н/о +6.3 -0.4 62 +2 +2 1006.9 1004.6
15 18.09 СЗ 4 н/о н/о +6.3 -0.7 61 +3 +3 1007.1 1004.9
18 18.09 С 1 н/о н/о +1.1 -1.5 83 -1 -1 1007.7 1005.4 +7.4
21 18.09 СЗ 2 н/о н/о -1.1 -2.2 92 -5 -5 1008.3 1006.0
00 19.09 С 1 н/о н/о -1.8 -2.6 94 -4 -4 1008.7 1006.4
03 19.09 СЗ 2 н/о н/о -1.2 -2.1 94 -5 -5 1008.6 1006.3
06 19.09 С 2 н/о н/о +1.1 -0.8 87 -2 -2 1008.8 1006.5
09 19.09 СЗ 4 н/о н/о +5.0 -1.1 65 +1 +1 1009.0 1006.7
12 19.09 З 3 н/о н/о +6.1 -0.8 61 +3 +3 1008.9 1006.7
15 19.09 С 4 н/о н/о +5.5 -2.2 58 +2 +2 1008.9 1006.6
18 19.09 СВ 2-2
{10}
н/о н/о -0.6 -1.9 91 -4 -4 1008.4 1006.1 +6.5
00 20.09 З 3 н/о н/о +2.2 -1.2 78 -2 -2 1006.0 1003.8
03 20.09 СЗ 4 н/о н/о +2.1 -1.0 80 -3 -3 1004.2 1001.9 -1.7
06 20.09 СЗ 6-11
{11}
н/о н/о +4.0 -0.1 75 -1 -1 1003.4 1001.2 -1.7
09 20.09 СЗ 8-12
{12}
н/о н/о +5.8 +0.3 68 +1 +1 1003.6 1001.4
12 20.09 З 5-8
{13}
н/о н/о +6.3 +0.9 68 +2 +2 1004.2 1002.0
15 20.09 СЗ 6-9
{13}
н/о н/о +5.9 +1.4 73 +1 +1 1004.9 1002.7
18 20.09 СЗ 3 н/о н/о +4.8 +0.9 76 +1 +1 1005.4 1003.2 +6.8
21 20.09 С 2 н/о н/о +3.5 -0.7 74 +1 +1 1005.4 1003.1
00 21.09 СЗ 3 н/о н/о +2.6 -0.8 78 -1 -1 1005.4 1003.1
03 21.09 СЗ 2 н/о н/о +1.9 -0.6 83 -1 -1 1005.3 1003.0 +1.1

 

Местоположение метеостанции Порт Кандалакша (Мурманская область, Россия): широта 67.13 долгота 32.42 высота над уровнем моря 18 м.

В архиве по умолчанию представлена погода в Порту Кандалакша за последнюю неделю. Архивные данные за месяц целиком и за предыдущие месяцы, начиная с января 2011 года, Вы можете получить, выбрав интересующий диапазон дат из раскрывающегося списка и нажав кнопку "Ввод!".


*Определитесь, кто Вы:
робот инопланетянин человек

Внимание! Время в таблицах - всемирное. Для получения местного времени необходимо прибавить поправку, которая равна 3 ч.

Смотрите также архив погоды в соседних городах и на ближайших метеорологических станциях:

Погода в Кандалакше (Мурманская область, Россия) (4 км)
Погода в Порту Витино (Мурманская область, Россия) (7 км)
Погода в Зашейке (Мурманская область, Россия) (31 км)
Погода в Ковде (Мурманская область, Россия) (52 км)
Погода в Апатитах (Мурманская область, Россия) (61 км)
Погода в Зареченске (Мурманская область, Россия) (66 км)
Погода в Кировске (Мурманская область, Россия) (76 км)
Погода в Алакуртти (Мурманская область, Россия) (91 км)
Погода в Мончегорске (Мурманская область, Россия) (92 км)
Погода в Умбозере (Мурманская область, Россия) (93 км)

Пояснения к столбцам:

Ветер - указаны скорость ветра в м/с - средняя за 10 мин, порывы в срок и между сроками (в фигурных скобках) и направление, откуда дует ветер: С - северный, СВ - северо-восточный, В - восточный, ЮВ - юго-восточный, Ю - южный, ЮЗ - юго-западный, З - западный, СЗ - северо-западный.
Видимость - горизонтальная дальность видимости в метрах или километрах. При видимости от 1 до 10 км при отсутствии осадков обычно наблюдается дымка, при ухудшении видимости до 1 км и менее - туман. В сухую погоду видимость может ухудшаться дымом, пылью или мглою.
Явления - указаны атмосферные явления, наблюдавшиеся в срок или в последний час перед сроком; фигурными скобками обозначены явления, наблюдавшиеся между сроками (за 1-3 часа до срока); квадратными скобками обозначены град или гололедные отложения с указанием их диаметра в мм.
Облачность - указаны через наклонную черту общая и нижняя облачность в баллах и высота нижней границы облаков в метрах; квадратными скобками обозначены формы облаков: Ci - перистые, Cs - перисто-слоистые, Cc - перисто-кучевые, Ac - высококучевые, As - высокослоистые, Sc - слоисто-кучевые, Ns - слоисто-дождевые, Cu - кучевые, Cb - кучево-дождевые. Подробнее классификацию облаков см. в Атласе облаков (PDF).
T - Температура воздуха - температура, измеренная на высоте 2 м над землей.
Td - Температура точки росы - температура, при понижении до которой содержащийся в воздухе водяной пар достигнет насыщения.
f - Относительная влажность воздуха - влажноcть воздуха, измеренная на высоте 2 м над землей.
Te - Эффективная температура - температура, которую ощущает одетый по сезону человек в тени. Характеристика душности погоды. При расчете учитывается влияние влажности воздуха и скорости ветра на теплоощущения человека.
Tes - Эффективная температура на солнце - температура, которую ощущает человек, с поправкой на солнечный нагрев. Характеристика знойности погоды. Зависит от высоты солнца над горизонтом, облачности и скорости ветра. Ночью, в пасмурную погоду, а также при ветре 12 м/с и более поправка равна нулю.
P - Атмосферное давление - приведенное к уровню моря атмосферное давление.
Po - Атмосферное давление - измеренное на уровне метеостанции атмосферное давление.
Tmin - Минимальная температура - минимум температуры воздуха на высоте 2 м над землей.
Tmax - Максимальная температура - максимум температуры воздуха на высоте 2 м над землей.
R - Количество осадков - Количество выпавших осадков за период времени, мм. При наведении курсора мыши на число - период времени, за который выпало указанное количество осадков.
R24 - Количество осадков - Количество выпавших осадков за 24 часа, мм.
S - Снежный покров - Высота снежного покрова, см. При наведении курсора мыши на число - состояние снежного покрова и степень покрытия местности в баллах.